TimePST,TemperatureF,Dew PointF,Humidity,Sea Level PressureIn,VisibilityMPH,Wind Direction,Wind SpeedMPH,Gust SpeedMPH,PrecipitationIn,Events,Conditions,WindDirDegrees,DateUTC
12:56 AM,37.0,36.0,96,30.33,10.0,Calm,Calm,-,N/A,,Clear,0,2012-11-22 08:56:00
1:56 AM,39.0,36.0,89,30.32,10.0,SE,9.2,-,N/A,,Clear,140,2012-11-22 09:56:00
2:56 AM,36.0,35.1,97,30.34,10.0,Calm,Calm,-,N/A,,Clear,0,2012-11-22 10:56:00
3:56 AM,35.1,34.0,96,30.35,10.0,Calm,Calm,-,N/A,,Clear,0,2012-11-22 11:56:00
4:51 AM,33.8,33.8,100,30.33,9.0,Calm,Calm,-,N/A,,Scattered Clouds,0,2012-11-22 12:51:00
4:56 AM,34.0,34.0,100,30.34,1.5,Calm,Calm,-,N/A,,Mostly Cloudy,0,2012-11-22 12:56:00
4:58 AM,33.8,33.8,100,30.34,0.8,Calm,Calm,-,N/A,,Mist,0,2012-11-22 12:58:00
5:31 AM,35.6,33.8,93,30.34,1.5,NNW,3.5,-,N/A,,Mostly Cloudy,340,2012-11-22 13:31:00
5:42 AM,33.8,33.8,100,30.34,0.8,NNW,4.6,-,N/A,,Mist,340,2012-11-22 13:42:00
5:56 AM,35.1,35.1,100,30.35,0.5,Calm,Calm,-,N/A,Fog,Fog,0,2012-11-22 13:56:00
6:34 AM,35.6,35.6,100,30.34,0.2,Calm,Calm,-,N/A,Fog,Fog,0,2012-11-22 14:34:00
6:56 AM,35.1,35.1,100,30.35,0.5,Calm,Calm,-,N/A,Fog,Fog,0,2012-11-22 14:56:00
7:33 AM,35.6,35.6,100,30.35,0.2,Calm,Calm,-,N/A,Fog,Fog,0,2012-11-22 15:33:00
7:53 AM,35.6,35.6,100,30.34,1.0,Calm,Calm,-,N/A,,Overcast,0,2012-11-22 15:53:00
7:56 AM,36.0,36.0,100,30.34,1.0,Calm,Calm,-,N/A,,Overcast,0,2012-11-22 15:56:00
8:21 AM,35.6,35.6,100,30.34,2.0,Calm,Calm,-,N/A,,Mostly Cloudy,0,2012-11-22 16:21:00
8:34 AM,37.4,35.6,93,30.35,3.0,WNW,3.5,-,N/A,,Mostly Cloudy,300,2012-11-22 16:34:00
8:56 AM,37.9,37.9,100,30.35,4.0,Calm,Calm,-,N/A,,Mostly Cloudy,0,2012-11-22 16:56:00
9:56 AM,39.0,39.0,100,30.34,4.0,Calm,Calm,-,N/A,,Mostly Cloudy,0,2012-11-22 17:56:00
10:56 AM,42.1,39.0,89,30.34,10.0,Calm,Calm,-,N/A,,Mostly Cloudy,0,2012-11-22 18:56:00
11:06 AM,42.8,39.2,87,30.34,10.0,Calm,Calm,-,N/A,,Mostly Cloudy,0,2012-11-22 19:06:00
11:56 AM,44.1,39.9,85,30.32,10.0,Calm,Calm,-,N/A,,Mostly Cloudy,0,2012-11-22 19:56:00
12:56 PM,45.0,39.9,82,30.30,10.0,Calm,Calm,-,N/A,,Overcast,0,2012-11-22 20:56:00
1:56 PM,46.9,41.0,80,30.30,10.0,Calm,Calm,-,N/A,,Mostly Cloudy,0,2012-11-22 21:56:00
2:56 PM,48.0,39.9,74,30.30,10.0,North,4.6,-,N/A,,Mostly Cloudy,360,2012-11-22 22:56:00
3:56 PM,46.0,41.0,83,30.30,10.0,Calm,Calm,-,N/A,,Clear,0,2012-11-22 23:56:00
4:56 PM,43.0,39.9,89,30.29,10.0,Calm,Calm,-,N/A,,Clear,0,2012-11-23 00:56:00
5:56 PM,41.0,41.0,100,30.29,10.0,Calm,Calm,-,N/A,,Clear,0,2012-11-23 01:56:00
6:56 PM,39.9,39.9,100,30.27,7.0,Calm,Calm,-,N/A,,Clear,0,2012-11-23 02:56:00
7:56 PM,39.0,39.0,100,30.27,5.0,Calm,Calm,-,N/A,,Clear,0,2012-11-23 03:56:00
8:56 PM,39.0,39.0,100,30.27,5.0,Calm,Calm,-,N/A,,Clear,0,2012-11-23 04:56:00
9:56 PM,37.9,37.9,100,30.27,4.0,Calm,Calm,-,N/A,,Clear,0,2012-11-23 05:56:00
10:42 PM,37.4,37.4,100,30.26,2.0,Calm,Calm,-,N/A,,Clear,0,2012-11-23 06:42:00
10:56 PM,37.9,37.9,100,30.27,1.0,Calm,Calm,-,N/A,,Clear,0,2012-11-23 06:56:00
11:04 PM,37.4,37.4,100,30.26,0.8,Calm,Calm,-,N/A,,Clear,0,2012-11-23 07:04:00
11:12 PM,37.4,37.4,100,30.26,1.0,Calm,Calm,-,N/A,,Clear,0,2012-11-23 07:12:00
11:19 PM,37.4,37.4,100,30.26,0.8,Calm,Calm,-,N/A,,Clear,0,2012-11-23 07:19:00
11:23 PM,37.4,37.4,100,30.27,1.5,Calm,Calm,-,N/A,,Clear,0,2012-11-23 07:23:00
11:26 PM,37.4,37.4,100,30.27,3.0,Calm,Calm,-,N/A,,Clear,0,2012-11-23 07:26:00
11:48 PM,37.4,35.6,93,30.27,2.5,South,3.5,-,N/A,,Clear,170,2012-11-23 07:48:00
11:56 PM,36.0,36.0,100,30.27,4.0,SE,3.5,-,N/A,,Clear,130,2012-11-23 07:56:00